Location: Newark
(45.8667°N, 9.7333°E)
Time: 15:37:03
(UTC+00:00)

Vanguard 1 - All Passes

Search period start: 19 January 2020 00:00
Search period end: 29 January 2020 00:00
Orbit: 651 x 3832 km, 34.2° (Epoch: 18 January)

Date Brightness Start Highest point End Pass type
(mag) Time Alt. Az. Time Alt. Az. Time Alt. Az.
19 Jan - 00:28:23 10° WSW 00:35:27 17° SSW 00:44:48 10° S visible
19 Jan - 17:50:19 10° SSW 17:54:12 22° SSE 17:59:24 10° ESE visible
19 Jan - 20:08:05 10° WSW 20:13:43 34° S 20:22:55 10° ESE visible
19 Jan - 22:27:27 10° WSW 22:34:33 27° SSW 22:45:39 10° SSE night (unlit)
20 Jan - 00:52:18 10° SW 00:56:28 12° SSW 01:01:18 10° SSW night (unlit)
20 Jan - 18:10:39 10° SW 18:14:49 26° SSE 18:20:37 10° ESE visible
20 Jan - 20:28:51 10° WSW 20:34:33 32° S 20:43:46 10° SE visible
20 Jan - 22:48:52 10° WSW 22:55:32 22° SSW 23:05:19 10° SSE night (unlit)
21 Jan - 16:15:15 10° SSE 16:16:33 11° SSE 16:17:56 10° SE daylight
21 Jan - 18:31:09 10° SW 18:35:29 28° S 18:41:43 10° ESE visible
21 Jan - 20:49:44 10° WSW 20:55:26 29° S 21:04:24 10° SE visible
21 Jan - 23:10:47 10° WSW 23:16:33 17° SSW 23:24:16 10° S night (unlit)
22 Jan - 16:34:29 10° SSW 16:37:06 15° SSE 16:40:01 10° ESE daylight
22 Jan - 18:51:46 10° SW 18:56:12 29° S 19:02:41 10° ESE visible
22 Jan - 21:10:46 10° WSW 21:16:19 25° SSW 21:24:44 10° SE visible
22 Jan - 23:34:05 10° SW 23:37:33 12° SSW 23:41:36 10° S night (unlit)
23 Jan - 16:54:31 10° SSW 16:57:41 19° SSE 17:01:24 10° ESE visible
23 Jan - 19:12:28 10° WSW 19:16:58 28° S 19:23:32 10° SE visible
23 Jan - 21:32:03 10° WSW 21:37:15 20° SSW 21:44:39 10° SSE night (unlit)
24 Jan - 17:14:51 10° SW 17:18:19 21° SSE 17:22:31 10° ESE visible
24 Jan - 19:33:19 10° WSW 19:37:46 25° S 19:44:11 10° SE visible
24 Jan - 21:53:49 10° SW 21:58:11 16° SSW 22:03:55 10° SSE night (unlit)
25 Jan - 15:18:50 10° S 15:19:57 11° SSE 15:21:02 10° SE daylight
25 Jan - 17:35:23 10° SW 17:39:00 23° S 17:43:30 10° ESE visible
25 Jan - 19:54:17 10° WSW 19:58:35 22° S 20:04:38 10° SE visible
25 Jan - 22:17:03 10° SW 22:19:08 11° SSW 22:21:30 10° S night (unlit)
26 Jan - 15:38:08 10° SSW 15:40:35 14° SSE 15:43:02 10° SE daylight
26 Jan - 17:56:03 10° SW 17:59:43 23° S 18:04:19 10° SE visible
26 Jan - 20:15:31 10° SW 20:19:26 18° SSW 20:24:41 10° SSE visible
27 Jan - 15:58:14 10° SSW 16:01:14 17° SSE 16:04:17 10° SE daylight
27 Jan - 18:16:51 10° SW 18:20:27 22° S 18:25:00 10° SE visible
27 Jan - 20:37:13 10° SW 20:40:18 14° SSW 20:44:06 10° S visible
28 Jan - 16:18:40 10° SW 16:21:54 19° S 16:25:17 10° SE daylight
28 Jan - 18:37:48 10° SW 18:41:12 19° S 18:45:28 10° SE visible
